SCP
-0 -0 -0 -0 -0 -0 0 0 0 0 0 0 0 0 0 0 0 0 0 0 0 0 0 0 0 0 0 0 0 0 0 0 -0 0 0 0 0 0 -0 -0 0 0 0 -0
-0 -0 -0 -0 -0 -0 0 0 0 0 0 0 0 0 0 0 0 0 0 0 0 0 0 0 0 0 0 0 0 0 0 0 0 0 -0 -0 0 0 0 0 0 0 -0 0
-0 -0 -0 -0 -0 -0 0 0 0 0 0 0 0 0 0 0 0 0 0 0 0 0 0 0 0 0 0 0 0 0 0 0 0 0 0 0 0 0 0 0 0 0 0 0
-0 -0 -0 -0 -0 -0 0 0 0 0 0 0 0 0 0 0 0 0 0 0 0 0 0 0 0 0 0 0 0 0 0 -0 0 0 0 0 0 0 0 0 0 0 0 0
-0 -0 -0 -0 -0 -0 0 0 0 0 0 0 0 0 0 0 0 0 0 0 0 0 0 0 0 0 0 0 0 0 0 0 0 -0 0 0 -0 -0 0 -0 -0 -0 -0 -0
-0 -0 -0 -0 -0 -0 0 0 0 0 0 0 0 0 0 0 0 0 0 0 0 0 0 0 0 0 0 0 0 0 0 0 0 -0 0 -0 -0 -0 0 -0 -0 -0 -0 0
0 -0 -0 -0 -0 0 0 0 0 0 0 0 0 0 0 0 0 0 0 0 0 0 0 0 0 0 0 0 0 0 0 0 0 0 0 -0 0 0 0 0 0 0 0 0
0 -0 -0 -0 0 0 0 0 0 0 0 0 0 0 0 0 0 0 0 0 0 0 0 0 0 0 0 0 0 0 0 0 0 0 0 0 0 0 0 0 0 0 -0 0
0 0 0 0 0 0 -0 0 0 0 0 0 0 0 0 0 0 0 0 0 0 0 0 0 0 0 0 0 0 0 0 0 0 0 0 0 0 0 0 0 0 0 0 0
0 0 0 0 0 0 0 0 0 0 0 0 0 0 0 0 0 0 0 0 0 0 0 0 0 0 0 0 0 0 0 0 0 0 0 0 0 0 0 0 0 0 0 0
0 0 0 0 0 0 0 0 0 0 0 0 0 0 0 0 0 0 0 0 0 0 0 0 0 0 0 0 0 0 0 0 0 0 0 0 0 0 0 0 0 0 0 0
0 0 0 0 0 0 0 0 0 0 0 0 0 0 0 0 0 0 0 0 0 0 0 0 0 0 0 0 0 0 0 0 0 0 0 0 0 0 0 0 0 0 0 0
0 0 0 0 0 0 0 0 0 0 0 0 0 0 0 0 0 0 0 0 0 0 0 0 0 0 0 0 0 0 0 0 0 0 0 0 0 0 0 0 0 0 0 0
0 0 0 0 0 0 0 0 0 0 0 0 0 0 0 0 0 0 0 0 0 0 0 0 0 0 0 0 0 0 0 0 0 0 0 0 0 0 0 0 0 0 0 0
0 0 0 0 0 0 0 0 0 0 0 0 0 0 0 0 0 0 0 0 0 0 0 0 0 0 0 0 0 0 0 0 0 0 0 0 0 0 0 0 0 0 0 0
0 0 0 0 0 0 0 0 0 0 0 0 0 0 0 0 0 0 0 0 0 0 0 0 0 0 0 0 0 0 0 0 0 0 0 0 0 0 0 0 0 0 0 0
0 0 0 0 0 0 0 0 0 0 0 0 0 0 0 0 0 0 0 0 0 0 0 0 0 0 0 0 0 0 0 0 0 0 0 0 0 0 0 0 0 0 0 0
0 0 0 0 0 0 0 0 0 0 0 0 0 0 0 0 0 0 0 0 0 0 0 0 0 0 0 0 0 0 0 0 0 0 0 0 0 0 0 0 0 0 0 0
0 0 0 0 0 0 0 0 0 0 0 0 0 0 0 0 0 0 0 0 0 0 0 0 0 0 0 0 0 0 0 0 0 0 0 0 0 0 0 0 0 0 0 0
-0 0 0 0 0 0 0 0 0 0 0 0 0 0 0 0 0 0 0 0 0 0 0 0 0 0 0 0 0 0 0 0 0 0 0 0 0 0 0 0 0 0 0 0
0 0 0 0 0 0 0 0 0 0 0 0 0 0 0 0 0 0 0 0 0 0 0 0 0 0 0 -0 -0 0 0 0 0 0 0 0 0 0 0 0 0 0 0 0
0 0 0 0 0 0 0 0 0 0 0 0 0 0 0 0 0 0 0 0 0 0 0 0 0 0 0 0 0 0 0 0 0 0 0 0 0 0 0 0 0 0 0 0
0 0 0 0 0 0 0 0 0 0 0 0 0 0 0 0 0 0 0 0 0 0 0 0 0 0 0 0 0 0 0 0 0 0 0 0 0 0 0 0 0 0 0 0
0 0 0 0 0 0 0 0 0 0 0 0 0 -0 -0 -0 -0 -0 -0 -0 -0 0 -0 0 0 0 1 0 0 0 0 0 0 0 0 0 0 0 0 0 0 0 0 0
0 0 0 0 0 0 0 0 0 0 0 -0 -0 -0 -0 -0 -0 -0 -0 -0 0 -0 0 -0 0 0 0 0 0 0 0 0 0 0 0 0 0 0 0 0 0 0 0 0
0 0 0 0 0 0 0 0 -0 -0 -0 -0 -0 -0 -0 -0 -0 0 -0 0 0 0 -0 -0 0 0 0 0 0 0 0 0 0 0 0 0 0 0 0 0 0 0 0 0
0 0 0 0 0 0 -0 -0 0 -0 0 -0 -0 0 0 -0 0 0 0 0 -0 0 -0 -0 -0 -0 -0 0 0 0 0 0 0 0 0 0 0 0 0 0 0 0 0 0
Wind_Speed_500mb
54 54 55 56 57 50 41 6 10 6 8 15 6 11 1 3 4 2 5 6 4 2 5 8 9 9 8 5 18 11 3 13 13 18 7 3 4 11 20 15 14 3 18 16
54 52 50 49 50 49 44 16 7 10 7 13 16 7 7 6 6 2 5 11 6 2 2 5 2 6 7 6 12 8 9 7 16 13 21 13 4 6 6 10 13 9 17 13
54 52 49 45 42 36 30 10 5 4 3 4 14 6 10 9 5 6 6 5 9 13 13 7 3 10 7 6 4 4 6 8 12 15 19 11 7 5 7 18 12 7 17 9
52 52 49 44 38 29 17 11 6 5 2 7 9 8 4 12 11 4 4 8 9 17 14 14 12 8 14 13 13 8 11 17 2 3 6 10 16 18 16 19 19 19 20 6
50 50 50 44 38 25 14 11 10 9 10 9 12 8 7 11 3 6 7 5 8 10 21 9 10 10 12 15 17 16 12 13 10 18 13 18 24 27 27 27 27 28 28 32
48 49 48 48 42 30 15 15 11 9 3 6 9 3 3 1 8 5 1 10 13 12 8 15 15 17 14 9 19 22 18 15 14 23 11 19 25 36 36 31 26 21 24 19
44 44 45 45 43 38 26 23 11 10 6 8 6 6 7 12 12 16 9 15 12 9 20 19 16 20 22 18 20 19 18 19 16 20 23 30 25 7 18 24 24 20 26 7
42 42 40 40 38 34 28 25 11 10 12 11 19 14 16 18 18 22 22 21 13 20 20 15 19 21 24 28 26 21 21 19 18 18 23 28 29 24 19 20 22 18 23 16
41 41 41 38 35 30 22 21 16 6 15 6 10 17 14 17 15 16 22 13 15 12 14 19 31 27 31 25 18 14 20 24 21 16 24 24 9 15 19 11 22 22 21 23
39 40 41 39 35 30 22 17 17 6 14 13 11 13 14 11 14 15 12 9 11 13 17 26 31 35 36 35 34 14 18 21 29 23 22 18 14 9 17 24 5 22 28 33
37 37 39 40 39 34 26 16 22 11 12 32 29 24 24 24 17 14 11 15 17 14 18 22 26 28 32 33 41 34 28 18 22 23 27 28 12 15 30 9 10 19 29 34
33 34 34 35 35 38 36 14 24 25 17 23 31 37 38 30 24 26 22 22 15 9 9 8 12 18 16 31 32 37 32 33 23 20 16 8 11 34 35 3 1 22 32 38
32 33 34 34 33 34 35 26 29 19 16 31 17 5 5 7 26 43 25 24 23 19 9 16 9 12 12 24 30 39 33 30 23 20 26 26 20 18 27 24 14 10 23 37
30 31 33 33 31 32 32 24 23 16 14 13 4 8 5 23 21 21 38 53 39 27 20 25 16 14 10 18 14 16 16 23 30 29 32 8 24 26 23 25 26 19 26 42
32 33 33 35 34 31 28 13 7 17 11 14 30 43 14 8 13 22 35 43 43 38 35 21 22 33 28 28 24 20 28 23 21 23 34 34 31 16 21 20 25 24 35 39
32 32 33 33 33 29 18 6 6 13 15 13 9 12 10 13 18 16 23 34 39 47 34 36 39 45 31 17 31 49 51 31 23 13 9 3 3 7 10 17 20 29 32 35
34 32 32 31 31 31 8 8 6 13 21 8 14 9 4 14 12 12 9 9 20 29 44 49 41 33 45 28 35 38 37 56 56 44 39 35 25 13 11 11 15 23 25 29
34 32 34 35 25 7 4 3 5 10 13 8 8 9 11 12 11 14 11 22 24 23 28 27 32 43 49 28 40 48 63 59 48 44 30 35 36 33 27 19 18 24 28 34
36 35 29 6 4 3 4 10 22 24 12 11 8 9 10 19 20 23 15 10 12 23 19 27 24 24 24 22 41 47 51 61 62 64 58 50 43 35 37 39 33 34 32 41
32 18 6 5 4 10 16 9 6 7 9 11 12 21 18 23 24 12 20 11 11 13 20 31 28 33 59 61 48 30 45 53 54 59 61 60 62 58 42 36 47 51 46 49
18 13 6 15 23 4 6 6 8 7 9 12 14 12 13 11 18 18 10 9 9 12 14 23 22 27 34 60 71 72 75 69 62 59 54 53 56 55 51 40 39 40 47 48
25 21 19 10 2 1 6 4 5 9 5 6 6 5 15 19 17 9 10 9 8 14 12 12 28 26 49 26 24 33 55 69 71 63 61 51 48 52 54 44 37 43 45 46
14 6 6 4 3 1 6 6 6 6 5 7 12 19 22 10 8 11 7 10 14 24 19 35 33 46 28 16 24 31 32 42 48 55 68 64 49 44 51 52 40 44 48 48
7 6 8 8 7 9 6 8 4 8 15 23 28 28 16 20 9 8 8 11 10 11 20 31 15 44 31 27 33 38 37 33 37 45 51 54 53 47 43 46 50 57 57 54
9 7 8 9 12 10 13 16 19 20 20 24 25 23 18 12 9 6 8 9 12 9 7 17 56 75 55 46 44 44 40 35 32 32 39 42 42 47 42 47 54 56 59 58
8 11 10 15 19 22 15 18 20 12 13 20 18 10 7 8 5 7 12 8 9 8 18 61 75 84 71 60 48 46 42 40 34 28 30 36 37 40 46 51 56 59 61 59
9 13 18 27 34 30 27 21 19 11 11 7 8 6 8 6 7 7 8 9 14 47 75 71 77 68 65 64 56 47 46 41 36 29 28 38 40 46 55 62 59 57 56 51
Wind_Direction_500mb
348 347 349 350 349 355 6 17 226 298 201 223 242 235 349 4 273 255 230 278 284 288 167 166 214 203 37 149 168 194 56 307 287 357 86 343 318 315 272 280 166 304 311 92
349 350 351 352 351 355 359 338 304 336 188 236 213 168 222 274 270 205 216 222 258 184 192 226 252 122 91 162 213 192 166 247 290 171 173 179 251 47 302 274 281 233 296 101
351 351 353 354 353 353 354 335 261 160 63 344 303 241 208 217 192 242 315 269 232 202 212 216 208 180 129 148 195 208 227 274 297 322 1 5 218 235 312 290 271 242 241 41
353 354 354 355 357 355 2 357 54 359 342 122 325 283 323 242 221 194 300 195 245 231 229 216 216 207 154 166 154 211 266 267 270 313 283 280 300 288 274 272 296 291 293 238
358 359 360 3 3 7 35 1 349 331 291 290 273 161 179 273 281 291 170 293 315 244 239 301 249 234 222 202 182 214 218 259 242 267 237 255 272 273 266 265 269 273 268 268
2 5 5 9 16 23 43 14 348 318 145 266 255 250 309 298 315 168 333 6 307 225 83 321 289 279 293 274 221 213 236 238 238 267 284 283 267 254 254 257 256 252 257 263
3 6 9 12 18 27 39 18 2 306 264 270 295 305 288 284 297 289 305 305 284 26 318 296 250 243 232 228 223 247 221 241 260 272 279 257 273 334 288 278 266 242 258 244
2 5 9 10 14 19 30 24 31 340 291 318 270 277 289 283 267 261 279 279 278 305 295 258 231 222 225 226 226 231 235 243 255 253 246 257 270 256 227 213 236 220 241 196
360 1 4 8 9 13 21 16 21 340 310 73 335 302 292 287 279 268 249 266 286 270 257 236 235 232 230 227 180 237 233 236 242 208 257 261 297 346 201 226 256 184 201 174
2 2 3 3 8 7 15 2 11 344 284 286 297 272 308 309 281 275 261 304 262 230 238 236 236 241 243 236 216 184 189 207 216 224 251 261 255 247 181 215 115 156 179 172
358 0 1 4 4 9 11 338 349 357 280 281 269 259 271 271 256 273 29 272 208 249 245 243 237 239 245 232 244 225 202 213 218 242 253 251 194 187 202 244 135 160 180 176
355 355 356 1 2 2 5 345 333 320 263 264 276 265 257 254 255 269 254 278 299 321 283 260 274 247 242 244 235 226 237 231 241 213 222 161 218 223 208 350 161 191 184 181
347 349 349 351 355 357 356 341 333 337 294 294 274 288 210 305 251 235 252 243 252 252 271 314 282 262 273 239 230 255 207 241 250 228 237 234 225 244 244 244 246 227 210 188
339 339 339 341 349 349 346 341 337 1 307 283 300 307 254 290 272 235 232 247 264 261 269 268 261 257 232 262 273 275 244 174 228 241 243 254 242 253 256 246 238 235 202 187
335 333 331 331 334 341 341 323 10 25 356 311 296 295 286 290 286 259 250 250 246 245 245 236 246 249 272 262 273 259 229 243 228 236 247 230 255 260 244 228 206 185 171 169
328 325 323 321 321 332 344 271 288 357 1 300 292 317 279 309 309 286 260 245 239 232 239 243 252 250 247 251 239 236 251 245 243 256 60 342 284 238 182 176 171 173 171 170
325 323 319 316 313 308 270 277 212 327 335 295 288 271 260 319 316 305 282 276 227 236 236 241 253 248 224 253 257 261 243 242 251 255 275 276 252 234 200 196 179 172 175 176
325 322 316 313 314 330 47 187 203 298 328 281 280 282 262 2 326 312 311 288 257 229 242 237 233 236 243 252 253 249 247 252 257 259 251 257 261 256 239 239 219 198 191 182
327 323 317 350 76 176 187 257 285 285 240 297 274 300 323 357 335 310 288 272 266 255 236 238 239 230 227 229 235 239 236 239 247 256 252 250 251 260 254 246 229 222 219 195
335 349 331 228 226 257 298 320 200 206 203 226 266 290 287 317 339 323 326 270 269 282 251 248 236 244 246 239 244 245 237 246 247 249 253 254 248 242 252 248 241 237 215 191
352 339 298 296 314 329 218 250 237 178 217 216 248 257 295 317 321 321 281 304 288 271 255 245 250 249 242 240 242 245 246 249 248 244 246 246 243 240 235 235 223 207 190 185
322 302 304 313 321 307 240 239 251 230 256 227 278 318 318 312 312 275 273 264 253 254 294 281 261 258 269 281 290 250 250 249 250 247 246 245 242 239 227 224 216 195 184 175
332 319 276 280 210 286 195 211 210 234 287 346 333 308 319 292 265 265 276 270 250 296 264 255 260 273 273 295 296 285 276 268 259 253 243 242 245 241 230 220 207 186 176 171
308 294 291 249 191 246 231 277 294 296 304 306 318 306 280 273 259 252 255 248 282 252 259 264 314 6 340 305 297 294 290 284 264 249 240 236 237 234 220 210 195 178 169 166
280 258 250 237 256 256 252 269 280 282 295 298 296 285 249 261 255 226 266 248 248 260 8 329 325 317 312 305 295 289 285 281 271 253 236 226 222 207 201 190 180 171 163 161
241 242 255 256 268 269 252 258 275 289 289 297 264 265 261 243 236 240 229 256 260 319 326 309 301 296 293 295 290 284 279 272 269 258 239 210 189 179 173 166 167 164 160 160
239 241 247 264 274 278 280 283 286 280 288 253 275 262 240 312 243 240 223 233 298 311 302 289 300 285 287 292 286 283 279 273 267 263 233 201 188 168 157 155 159 156 156 159
Wind_Speed_850mb
54 54 55 56 57 50 41 6 10 6 8 15 6 11 1 3 4 2 5 6 4 2 5 8 9 9 8 5 18 11 3 13 13 18 7 3 4 11 20 15 14 3 18 16
54 52 50 49 50 49 44 16 7 10 7 13 16 7 7 6 6 2 5 11 6 2 2 5 2 6 7 6 12 8 9 7 16 13 21 13 4 6 6 10 13 9 17 13
54 52 49 45 42 36 30 10 5 4 3 4 14 6 10 9 5 6 6 5 9 13 13 7 3 10 7 6 4 4 6 8 12 15 19 11 7 5 7 18 12 7 17 9
52 52 49 44 38 29 17 11 6 5 2 7 9 8 4 12 11 4 4 8 9 17 14 14 12 8 14 13 13 8 11 17 2 3 6 10 16 18 16 19 19 19 20 6
50 50 50 44 38 25 14 11 10 9 10 9 12 8 7 11 3 6 7 5 8 10 21 9 10 10 12 15 17 16 12 13 10 18 13 18 24 27 27 27 27 28 28 32
48 49 48 48 42 30 15 15 11 9 3 6 9 3 3 1 8 5 1 10 13 12 8 15 15 17 14 9 19 22 18 15 14 23 11 19 25 36 36 31 26 21 24 19
44 44 45 45 43 38 26 23 11 10 6 8 6 6 7 12 12 16 9 15 12 9 20 19 16 20 22 18 20 19 18 19 16 20 23 30 25 7 18 24 24 20 26 7
42 42 40 40 38 34 28 25 11 10 12 11 19 14 16 18 18 22 22 21 13 20 20 15 19 21 24 28 26 21 21 19 18 18 23 28 29 24 19 20 22 18 23 16
41 41 41 38 35 30 22 21 16 6 15 6 10 17 14 17 15 16 22 13 15 12 14 19 31 27 31 25 18 14 20 24 21 16 24 24 9 15 19 11 22 22 21 23
39 40 41 39 35 30 22 17 17 6 14 13 11 13 14 11 14 15 12 9 11 13 17 26 31 35 36 35 34 14 18 21 29 23 22 18 14 9 17 24 5 22 28 33
37 37 39 40 39 34 26 16 22 11 12 32 29 24 24 24 17 14 11 15 17 14 18 22 26 28 32 33 41 34 28 18 22 23 27 28 12 15 30 9 10 19 29 34
33 34 34 35 35 38 36 14 24 25 17 23 31 37 38 30 24 26 22 22 15 9 9 8 12 18 16 31 32 37 32 33 23 20 16 8 11 34 35 3 1 22 32 38
32 33 34 34 33 34 35 26 29 19 16 31 17 5 5 7 26 43 25 24 23 19 9 16 9 12 12 24 30 39 33 30 23 20 26 26 20 18 27 24 14 10 23 37
30 31 33 33 31 32 32 24 23 16 14 13 4 8 5 23 21 21 38 53 39 27 20 25 16 14 10 18 14 16 16 23 30 29 32 8 24 26 23 25 26 19 26 42
32 33 33 35 34 31 28 13 7 17 11 14 30 43 14 8 13 22 35 43 43 38 35 21 22 33 28 28 24 20 28 23 21 23 34 34 31 16 21 20 25 24 35 39
32 32 33 33 33 29 18 6 6 13 15 13 9 12 10 13 18 16 23 34 39 47 34 36 39 45 31 17 31 49 51 31 23 13 9 3 3 7 10 17 20 29 32 35
34 32 32 31 31 31 8 8 6 13 21 8 14 9 4 14 12 12 9 9 20 29 44 49 41 33 45 28 35 38 37 56 56 44 39 35 25 13 11 11 15 23 25 29
34 32 34 35 25 7 4 3 5 10 13 8 8 9 11 12 11 14 11 22 24 23 28 27 32 43 49 28 40 48 63 59 48 44 30 35 36 33 27 19 18 24 28 34
36 35 29 6 4 3 4 10 22 24 12 11 8 9 10 19 20 23 15 10 12 23 19 27 24 24 24 22 41 47 51 61 62 64 58 50 43 35 37 39 33 34 32 41
32 18 6 5 4 10 16 9 6 7 9 11 12 21 18 23 24 12 20 11 11 13 20 31 28 33 59 61 48 30 45 53 54 59 61 60 62 58 42 36 47 51 46 49
18 13 6 15 23 4 6 6 8 7 9 12 14 12 13 11 18 18 10 9 9 12 14 23 22 27 34 60 71 72 75 69 62 59 54 53 56 55 51 40 39 40 47 48
25 21 19 10 2 1 6 4 5 9 5 6 6 5 15 19 17 9 10 9 8 14 12 12 28 26 49 26 24 33 55 69 71 63 61 51 48 52 54 44 37 43 45 46
14 6 6 4 3 1 6 6 6 6 5 7 12 19 22 10 8 11 7 10 14 24 19 35 33 46 28 16 24 31 32 42 48 55 68 64 49 44 51 52 40 44 48 48
7 6 8 8 7 9 6 8 4 8 15 23 28 28 16 20 9 8 8 11 10 11 20 31 15 44 31 27 33 38 37 33 37 45 51 54 53 47 43 46 50 57 57 54
9 7 8 9 12 10 13 16 19 20 20 24 25 23 18 12 9 6 8 9 12 9 7 17 56 75 55 46 44 44 40 35 32 32 39 42 42 47 42 47 54 56 59 58
8 11 10 15 19 22 15 18 20 12 13 20 18 10 7 8 5 7 12 8 9 8 18 61 75 84 71 60 48 46 42 40 34 28 30 36 37 40 46 51 56 59 61 59
9 13 18 27 34 30 27 21 19 11 11 7 8 6 8 6 7 7 8 9 14 47 75 71 77 68 65 64 56 47 46 41 36 29 28 38 40 46 55 62 59 57 56 51
Wind_Direction_850mb
348 347 349 350 349 355 6 17 226 298 201 223 242 235 349 4 273 255 230 278 284 288 167 166 214 203 37 149 168 194 56 307 287 357 86 343 318 315 272 280 166 304 311 92
349 350 351 352 351 355 359 338 304 336 188 236 213 168 222 274 270 205 216 222 258 184 192 226 252 122 91 162 213 192 166 247 290 171 173 179 251 47 302 274 281 233 296 101
351 351 353 354 353 353 354 335 261 160 63 344 303 241 208 217 192 242 315 269 232 202 212 216 208 180 129 148 195 208 227 274 297 322 1 5 218 235 312 290 271 242 241 41
353 354 354 355 357 355 2 357 54 359 342 122 325 283 323 242 221 194 300 195 245 231 229 216 216 207 154 166 154 211 266 267 270 313 283 280 300 288 274 272 296 291 293 238
358 359 360 3 3 7 35 1 349 331 291 290 273 161 179 273 281 291 170 293 315 244 239 301 249 234 222 202 182 214 218 259 242 267 237 255 272 273 266 265 269 273 268 268
2 5 5 9 16 23 43 14 348 318 145 266 255 250 309 298 315 168 333 6 307 225 83 321 289 279 293 274 221 213 236 238 238 267 284 283 267 254 254 257 256 252 257 263
3 6 9 12 18 27 39 18 2 306 264 270 295 305 288 284 297 289 305 305 284 26 318 296 250 243 232 228 223 247 221 241 260 272 279 257 273 334 288 278 266 242 258 244
2 5 9 10 14 19 30 24 31 340 291 318 270 277 289 283 267 261 279 279 278 305 295 258 231 222 225 226 226 231 235 243 255 253 246 257 270 256 227 213 236 220 241 196
360 1 4 8 9 13 21 16 21 340 310 73 335 302 292 287 279 268 249 266 286 270 257 236 235 232 230 227 180 237 233 236 242 208 257 261 297 346 201 226 256 184 201 174
2 2 3 3 8 7 15 2 11 344 284 286 297 272 308 309 281 275 261 304 262 230 238 236 236 241 243 236 216 184 189 207 216 224 251 261 255 247 181 215 115 156 179 172
358 0 1 4 4 9 11 338 349 357 280 281 269 259 271 271 256 273 29 272 208 249 245 243 237 239 245 232 244 225 202 213 218 242 253 251 194 187 202 244 135 160 180 176
355 355 356 1 2 2 5 345 333 320 263 264 276 265 257 254 255 269 254 278 299 321 283 260 274 247 242 244 235 226 237 231 241 213 222 161 218 223 208 350 161 191 184 181
347 349 349 351 355 357 356 341 333 337 294 294 274 288 210 305 251 235 252 243 252 252 271 314 282 262 273 239 230 255 207 241 250 228 237 234 225 244 244 244 246 227 210 188
339 339 339 341 349 349 346 341 337 1 307 283 300 307 254 290 272 235 232 247 264 261 269 268 261 257 232 262 273 275 244 174 228 241 243 254 242 253 256 246 238 235 202 187
335 333 331 331 334 341 341 323 10 25 356 311 296 295 286 290 286 259 250 250 246 245 245 236 246 249 272 262 273 259 229 243 228 236 247 230 255 260 244 228 206 185 171 169
328 325 323 321 321 332 344 271 288 357 1 300 292 317 279 309 309 286 260 245 239 232 239 243 252 250 247 251 239 236 251 245 243 256 60 342 284 238 182 176 171 173 171 170
325 323 319 316 313 308 270 277 212 327 335 295 288 271 260 319 316 305 282 276 227 236 236 241 253 248 224 253 257 261 243 242 251 255 275 276 252 234 200 196 179 172 175 176
325 322 316 313 314 330 47 187 203 298 328 281 280 282 262 2 326 312 311 288 257 229 242 237 233 236 243 252 253 249 247 252 257 259 251 257 261 256 239 239 219 198 191 182
327 323 317 350 76 176 187 257 285 285 240 297 274 300 323 357 335 310 288 272 266 255 236 238 239 230 227 229 235 239 236 239 247 256 252 250 251 260 254 246 229 222 219 195
335 349 331 228 226 257 298 320 200 206 203 226 266 290 287 317 339 323 326 270 269 282 251 248 236 244 246 239 244 245 237 246 247 249 253 254 248 242 252 248 241 237 215 191
352 339 298 296 314 329 218 250 237 178 217 216 248 257 295 317 321 321 281 304 288 271 255 245 250 249 242 240 242 245 246 249 248 244 246 246 243 240 235 235 223 207 190 185
322 302 304 313 321 307 240 239 251 230 256 227 278 318 318 312 312 275 273 264 253 254 294 281 261 258 269 281 290 250 250 249 250 247 246 245 242 239 227 224 216 195 184 175
332 319 276 280 210 286 195 211 210 234 287 346 333 308 319 292 265 265 276 270 250 296 264 255 260 273 273 295 296 285 276 268 259 253 243 242 245 241 230 220 207 186 176 171
308 294 291 249 191 246 231 277 294 296 304 306 318 306 280 273 259 252 255 248 282 252 259 264 314 6 340 305 297 294 290 284 264 249 240 236 237 234 220 210 195 178 169 166
280 258 250 237 256 256 252 269 280 282 295 298 296 285 249 261 255 226 266 248 248 260 8 329 325 317 312 305 295 289 285 281 271 253 236 226 222 207 201 190 180 171 163 161
241 242 255 256 268 269 252 258 275 289 289 297 264 265 261 243 236 240 229 256 260 319 326 309 301 296 293 295 290 284 279 272 269 258 239 210 189 179 173 166 167 164 160 160
239 241 247 264 274 278 280 283 286 280 288 253 275 262 240 312 243 240 223 233 298 311 302 289 300 285 287 292 286 283 279 273 267 263 233 201 188 168 157 155 159 156 156 159